owner,sensor,date,latitude,longitude,sea_surface_height_above_sea_level,qcFlag 
TCOON,ioos:station:TCOON:518:1,2017-12-01T00:18:00Z,29.5150,-94.5133,1.493,1111122 
TCOON,ioos:station:TCOON:518:1,2017-12-01T01:18:00Z,29.5150,-94.5133,1.505,1111122 
TCOON,ioos:station:TCOON:518:1,2017-12-01T02:18:00Z,29.5150,-94.5133,1.53,1111122 
TCOON,ioos:station:TCOON:518:1,2017-12-01T03:18:00Z,29.5150,-94.5133,1.497,1111122 
TCOON,ioos:station:TCOON:518:1,2017-12-01T04:18:00Z,29.5150,-94.5133,1.468,1111122 
TCOON,ioos:station:TCOON:518:1,2017-12-01T05:18:00Z,29.5150,-94.5133,1.38,1111122 
TCOON,ioos:station:TCOON:518:1,2017-12-01T06:18:00Z,29.5150,-94.5133,1.409,1111122 
TCOON,ioos:station:TCOON:518:1,2017-12-01T07:18:00Z,29.5150,-94.5133,1.393,1111122 
TCOON,ioos:station:TCOON:518:1,2017-12-01T08:18:00Z,29.5150,-94.5133,1.396,1111122 
TCOON,ioos:station:TCOON:518:1,2017-12-01T09:18:00Z,29.5150,-94.5133,1.391,1111122 
TCOON,ioos:station:TCOON:518:1,2017-12-01T10:18:00Z,29.5150,-94.5133,1.394,1111122 
TCOON,ioos:station:TCOON:518:1,2017-12-01T11:18:00Z,29.5150,-94.5133,1.344,1111122 
TCOON,ioos:station:TCOON:518:1,2017-12-01T12:18:00Z,29.5150,-94.5133,1.266,1111122 
TCOON,ioos:station:TCOON:518:1,2017-12-01T13:18:00Z,29.5150,-94.5133,1.201,1111122 
TCOON,ioos:station:TCOON:518:1,2017-12-01T14:18:00Z,29.5150,-94.5133,1.151,1111122 
TCOON,ioos:station:TCOON:518:1,2017-12-01T15:18:00Z,29.5150,-94.5133,1.114,1111122 
TCOON,ioos:station:TCOON:518:1,2017-12-01T16:18:00Z,29.5150,-94.5133,1.079,1111122 
TCOON,ioos:station:TCOON:518:1,2017-12-01T17:18:00Z,29.5150,-94.5133,1.051,1111122 
TCOON,ioos:station:TCOON:518:1,2017-12-01T18:18:00Z,29.5150,-94.5133,1.098,1111122 
TCOON,ioos:station:TCOON:518:1,2017-12-01T19:18:00Z,29.5150,-94.5133,1.161,1111122 
TCOON,ioos:station:TCOON:518:1,2017-12-01T20:18:00Z,29.5150,-94.5133,1.263,1111122 
TCOON,ioos:station:TCOON:518:1,2017-12-01T21:18:00Z,29.5150,-94.5133,1.356,1111122 
TCOON,ioos:station:TCOON:518:1,2017-12-01T22:18:00Z,29.5150,-94.5133,1.424,1111122 
TCOON,ioos:station:TCOON:518:1,2017-12-01T23:18:00Z,29.5150,-94.5133,1.456,1111122 
TCOON,ioos:station:TCOON:518:1,2017-12-02T00:18:00Z,29.5150,-94.5133,1.48,1111122 
TCOON,ioos:station:TCOON:518:1,2017-12-02T01:24:00Z,29.5150,-94.5133,1.476,1111122 
TCOON,ioos:station:TCOON:518:1,2017-12-02T02:18:00Z,29.5150,-94.5133,1.473,1111122 
TCOON,ioos:station:TCOON:518:1,2017-12-02T03:18:00Z,29.5150,-94.5133,1.485,1111122 
TCOON,ioos:station:TCOON:518:1,2017-12-02T04:18:00Z,29.5150,-94.5133,1.504,1111122 
TCOON,ioos:station:TCOON:518:1,2017-12-02T05:18:00Z,29.5150,-94.5133,1.513,1111122 
TCOON,ioos:station:TCOON:518:1,2017-12-02T06:18:00Z,29.5150,-94.5133,1.501,1111122 
TCOON,ioos:station:TCOON:518:1,2017-12-02T07:18:00Z,29.5150,-94.5133,1.486,1111122 
TCOON,ioos:station:TCOON:518:1,2017-12-02T08:18:00Z,29.5150,-94.5133,1.502,1111122 
TCOON,ioos:station:TCOON:518:1,2017-12-02T09:18:00Z,29.5150,-94.5133,1.47,1111122 
TCOON,ioos:station:TCOON:518:1,2017-12-02T10:18:00Z,29.5150,-94.5133,1.498,1111122 
TCOON,ioos:station:TCOON:518:1,2017-12-02T11:18:00Z,29.5150,-94.5133,1.466,1111122 
TCOON,ioos:station:TCOON:518:1,2017-12-02T12:18:00Z,29.5150,-94.5133,1.381,1111122 
TCOON,ioos:station:TCOON:518:1,2017-12-02T13:18:00Z,29.5150,-94.5133,1.304,1111122 
TCOON,ioos:station:TCOON:518:1,2017-12-02T14:18:00Z,29.5150,-94.5133,1.235,1111122 
TCOON,ioos:station:TCOON:518:1,2017-12-02T15:18:00Z,29.5150,-94.5133,1.144,1111122 
TCOON,ioos:station:TCOON:518:1,2017-12-02T16:18:00Z,29.5150,-94.5133,1.116,1111122 
TCOON,ioos:station:TCOON:518:1,2017-12-02T17:18:00Z,29.5150,-94.5133,1.078,1111122 
TCOON,ioos:station:TCOON:518:1,2017-12-02T18:18:00Z,29.5150,-94.5133,1.058,1111122 
TCOON,ioos:station:TCOON:518:1,2017-12-02T19:18:00Z,29.5150,-94.5133,1.043,1111122 
TCOON,ioos:station:TCOON:518:1,2017-12-02T20:18:00Z,29.5150,-94.5133,1.128,1111122 
TCOON,ioos:station:TCOON:518:1,2017-12-02T21:18:00Z,29.5150,-94.5133,1.241,1111122 
TCOON,ioos:station:TCOON:518:1,2017-12-02T22:18:00Z,29.5150,-94.5133,1.304,1111122 
TCOON,ioos:station:TCOON:518:1,2017-12-02T23:18:00Z,29.5150,-94.5133,1.388,1111122 
TCOON,ioos:station:TCOON:518:1,2017-12-03T00:18:00Z,29.5150,-94.5133,1.416,1111122 
TCOON,ioos:station:TCOON:518:1,2017-12-03T01:18:00Z,29.5150,-94.5133,1.471,1111122 
TCOON,ioos:station:TCOON:518:1,2017-12-03T02:18:00Z,29.5150,-94.5133,1.508,1111122 
TCOON,ioos:station:TCOON:518:1,2017-12-03T03:18:00Z,29.5150,-94.5133,1.516,1111122 
TCOON,ioos:station:TCOON:518:1,2017-12-03T04:18:00Z,29.5150,-94.5133,1.5,1111122 
TCOON,ioos:station:TCOON:518:1,2017-12-03T05:18:00Z,29.5150,-94.5133,1.492,1111122 
TCOON,ioos:station:TCOON:518:1,2017-12-03T06:18:00Z,29.5150,-94.5133,1.503,1111122 
TCOON,ioos:station:TCOON:518:1,2017-12-03T07:18:00Z,29.5150,-94.5133,1.498,1111122 
TCOON,ioos:station:TCOON:518:1,2017-12-03T08:18:00Z,29.5150,-94.5133,1.483,1111122 
TCOON,ioos:station:TCOON:518:1,2017-12-03T09:18:00Z,29.5150,-94.5133,1.518,1111122 
TCOON,ioos:station:TCOON:518:1,2017-12-03T10:18:00Z,29.5150,-94.5133,1.514,1111122 
TCOON,ioos:station:TCOON:518:1,2017-12-03T11:18:00Z,29.5150,-94.5133,1.487,1111122 
TCOON,ioos:station:TCOON:518:1,2017-12-03T12:18:00Z,29.5150,-94.5133,1.424,1111122 
TCOON,ioos:station:TCOON:518:1,2017-12-03T13:18:00Z,29.5150,-94.5133,1.317,1111122 
TCOON,ioos:station:TCOON:518:1,2017-12-03T14:18:00Z,29.5150,-94.5133,1.279,1111122 
TCOON,ioos:station:TCOON:518:1,2017-12-03T15:18:00Z,29.5150,-94.5133,1.196,1111122 
TCOON,ioos:station:TCOON:518:1,2017-12-03T16:18:00Z,29.5150,-94.5133,1.129,1111122 
TCOON,ioos:station:TCOON:518:1,2017-12-03T17:18:00Z,29.5150,-94.5133,1.081,1111122 
TCOON,ioos:station:TCOON:518:1,2017-12-03T18:18:00Z,29.5150,-94.5133,1.03,1111122 
TCOON,ioos:station:TCOON:518:1,2017-12-03T19:18:00Z,29.5150,-94.5133,0.991,1111122 
TCOON,ioos:station:TCOON:518:1,2017-12-03T20:18:00Z,29.5150,-94.5133,1.004,1111122 
TCOON,ioos:station:TCOON:518:1,2017-12-03T21:18:00Z,29.5150,-94.5133,1.095,1111122 
TCOON,ioos:station:TCOON:518:1,2017-12-03T22:18:00Z,29.5150,-94.5133,1.221,1111122 
TCOON,ioos:station:TCOON:518:1,2017-12-03T23:18:00Z,29.5150,-94.5133,1.287,1111122 
TCOON,ioos:station:TCOON:518:1,2017-12-04T00:18:00Z,29.5150,-94.5133,1.388,1111122 
TCOON,ioos:station:TCOON:518:1,2017-12-04T01:18:00Z,29.5150,-94.5133,1.476,1111122 
TCOON,ioos:station:TCOON:518:1,2017-12-04T02:18:00Z,29.5150,-94.5133,1.493,1111122 
TCOON,ioos:station:TCOON:518:1,2017-12-04T03:18:00Z,29.5150,-94.5133,1.481,1111122 
TCOON,ioos:station:TCOON:518:1,2017-12-04T04:18:00Z,29.5150,-94.5133,1.568,1111122 
TCOON,ioos:station:TCOON:518:1,2017-12-04T05:18:00Z,29.5150,-94.5133,1.596,1111122 
TCOON,ioos:station:TCOON:518:1,2017-12-04T06:24:00Z,29.5150,-94.5133,1.566,1111122 
TCOON,ioos:station:TCOON:518:1,2017-12-04T07:18:00Z,29.5150,-94.5133,1.606,1111122 
TCOON,ioos:station:TCOON:518:1,2017-12-04T08:18:00Z,29.5150,-94.5133,1.632,1111122 
TCOON,ioos:station:TCOON:518:1,2017-12-04T09:18:00Z,29.5150,-94.5133,1.639,1111122 
TCOON,ioos:station:TCOON:518:1,2017-12-04T10:18:00Z,29.5150,-94.5133,1.635,1111122 
TCOON,ioos:station:TCOON:518:1,2017-12-04T11:18:00Z,29.5150,-94.5133,1.609,1111122 
TCOON,ioos:station:TCOON:518:1,2017-12-04T12:18:00Z,29.5150,-94.5133,1.571,1111122 
TCOON,ioos:station:TCOON:518:1,2017-12-04T13:18:00Z,29.5150,-94.5133,1.537,1111122 
TCOON,ioos:station:TCOON:518:1,2017-12-04T14:18:00Z,29.5150,-94.5133,1.453,1111122 
TCOON,ioos:station:TCOON:518:1,2017-12-04T15:18:00Z,29.5150,-94.5133,1.396,1111122 
TCOON,ioos:station:TCOON:518:1,2017-12-04T16:18:00Z,29.5150,-94.5133,1.3,1111122 
TCOON,ioos:station:TCOON:518:1,2017-12-04T17:18:00Z,29.5150,-94.5133,1.242,1111122 
TCOON,ioos:station:TCOON:518:1,2017-12-04T18:18:00Z,29.5150,-94.5133,1.186,1111122 
TCOON,ioos:station:TCOON:518:1,2017-12-04T19:18:00Z,29.5150,-94.5133,1.118,1111122 
TCOON,ioos:station:TCOON:518:1,2017-12-04T20:18:00Z,29.5150,-94.5133,1.145,1111122 
TCOON,ioos:station:TCOON:518:1,2017-12-04T21:18:00Z,29.5150,-94.5133,1.178,1111122 
TCOON,ioos:station:TCOON:518:1,2017-12-04T22:18:00Z,29.5150,-94.5133,1.318,1111122 
TCOON,ioos:station:TCOON:518:1,2017-12-04T23:18:00Z,29.5150,-94.5133,1.468,1111122 
TCOON,ioos:station:TCOON:518:1,2017-12-05T00:18:00Z,29.5150,-94.5133,1.54,1111122 
TCOON,ioos:station:TCOON:518:1,2017-12-05T01:18:00Z,29.5150,-94.5133,1.567,1111122 
TCOON,ioos:station:TCOON:518:1,2017-12-05T02:18:00Z,29.5150,-94.5133,1.644,1111122 
TCOON,ioos:station:TCOON:518:1,2017-12-05T04:18:00Z,29.5150,-94.5133,1.685,1111122 
TCOON,ioos:station:TCOON:518:1,2017-12-05T05:18:00Z,29.5150,-94.5133,1.705,1111122 
TCOON,ioos:station:TCOON:518:1,2017-12-05T06:18:00Z,29.5150,-94.5133,1.711,1111122 
TCOON,ioos:station:TCOON:518:1,2017-12-05T07:18:00Z,29.5150,-94.5133,1.722,1111122 
TCOON,ioos:station:TCOON:518:1,2017-12-05T08:18:00Z,29.5150,-94.5133,1.691,1111122 
TCOON,ioos:station:TCOON:518:1,2017-12-05T09:18:00Z,29.5150,-94.5133,1.661,1111122 
TCOON,ioos:station:TCOON:518:1,2017-12-05T10:18:00Z,29.5150,-94.5133,1.644,1111122 
TCOON,ioos:station:TCOON:518:1,2017-12-05T11:18:00Z,29.5150,-94.5133,1.623,1111122 
TCOON,ioos:station:TCOON:518:1,2017-12-05T12:18:00Z,29.5150,-94.5133,1.586,1111122 
TCOON,ioos:station:TCOON:518:1,2017-12-05T13:18:00Z,29.5150,-94.5133,1.537,1111122 
TCOON,ioos:station:TCOON:518:1,2017-12-05T16:18:00Z,29.5150,-94.5133,1.313,1111122 
TCOON,ioos:station:TCOON:518:1,2017-12-05T17:18:00Z,29.5150,-94.5133,1.245,1111122 
TCOON,ioos:station:TCOON:518:1,2017-12-05T19:18:00Z,29.5150,-94.5133,1.205,1111122 
TCOON,ioos:station:TCOON:518:1,2017-12-05T20:18:00Z,29.5150,-94.5133,1.294,1111122 
TCOON,ioos:station:TCOON:518:1,2017-12-05T21:18:00Z,29.5150,-94.5133,1.207,1111122 
TCOON,ioos:station:TCOON:518:1,2017-12-05T22:18:00Z,29.5150,-94.5133,1.185,1111122 
TCOON,ioos:station:TCOON:518:1,2017-12-05T23:18:00Z,29.5150,-94.5133,1.207,1111122 
TCOON,ioos:station:TCOON:518:1,2017-12-06T00:18:00Z,29.5150,-94.5133,1.307,1111122 
TCOON,ioos:station:TCOON:518:1,2017-12-06T01:18:00Z,29.5150,-94.5133,1.326,1111122 
TCOON,ioos:station:TCOON:518:1,2017-12-06T02:18:00Z,29.5150,-94.5133,1.325,1111122 
TCOON,ioos:station:TCOON:518:1,2017-12-06T03:18:00Z,29.5150,-94.5133,1.32,1111122 
TCOON,ioos:station:TCOON:518:1,2017-12-06T04:18:00Z,29.5150,-94.5133,1.255,1111122 
TCOON,ioos:station:TCOON:518:1,2017-12-06T05:18:00Z,29.5150,-94.5133,1.307,1111122 
TCOON,ioos:station:TCOON:518:1,2017-12-06T06:18:00Z,29.5150,-94.5133,1.374,1111122 
TCOON,ioos:station:TCOON:518:1,2017-12-06T07:18:00Z,29.5150,-94.5133,1.411,1111122 
TCOON,ioos:station:TCOON:518:1,2017-12-06T08:18:00Z,29.5150,-94.5133,1.416,1111122 
TCOON,ioos:station:TCOON:518:1,2017-12-06T09:18:00Z,29.5150,-94.5133,1.497,1111122 
TCOON,ioos:station:TCOON:518:1,2017-12-06T10:18:00Z,29.5150,-94.5133,1.524,1111122 
TCOON,ioos:station:TCOON:518:1,2017-12-06T11:18:00Z,29.5150,-94.5133,1.408,1111122 
TCOON,ioos:station:TCOON:518:1,2017-12-06T12:18:00Z,29.5150,-94.5133,1.305,1111122 
TCOON,ioos:station:TCOON:518:1,2017-12-06T13:24:00Z,29.5150,-94.5133,1.3,1111122 
TCOON,ioos:station:TCOON:518:1,2017-12-06T14:24:00Z,29.5150,-94.5133,1.279,1111122 
TCOON,ioos:station:TCOON:518:1,2017-12-06T16:36:00Z,29.5150,-94.5133,1.176,1111122 
TCOON,ioos:station:TCOON:518:1,2017-12-06T17:24:00Z,29.5150,-94.5133,1.156,1111122 
TCOON,ioos:station:TCOON:518:1,2017-12-06T18:24:00Z,29.5150,-94.5133,1.114,1111122 
TCOON,ioos:station:TCOON:518:1,2017-12-06T19:24:00Z,29.5150,-94.5133,1.075,1111122 
TCOON,ioos:station:TCOON:518:1,2017-12-06T20:24:00Z,29.5150,-94.5133,1.039,1111122 
TCOON,ioos:station:TCOON:518:1,2017-12-06T21:18:00Z,29.5150,-94.5133,1.03,1111122 
TCOON,ioos:station:TCOON:518:1,2017-12-06T22:18:00Z,29.5150,-94.5133,0.987,1111122 
TCOON,ioos:station:TCOON:518:1,2017-12-06T23:18:00Z,29.5150,-94.5133,0.992,1111122 
TCOON,ioos:station:TCOON:518:1,2017-12-07T00:18:00Z,29.5150,-94.5133,1.058,1111122 
TCOON,ioos:station:TCOON:518:1,2017-12-07T01:18:00Z,29.5150,-94.5133,1.114,1111122 
TCOON,ioos:station:TCOON:518:1,2017-12-07T02:18:00Z,29.5150,-94.5133,1.193,1111122 
TCOON,ioos:station:TCOON:518:1,2017-12-07T03:18:00Z,29.5150,-94.5133,1.307,1111122 
TCOON,ioos:station:TCOON:518:1,2017-12-07T04:18:00Z,29.5150,-94.5133,1.375,1111122 
TCOON,ioos:station:TCOON:518:1,2017-12-07T05:18:00Z,29.5150,-94.5133,1.414,1111122 
TCOON,ioos:station:TCOON:518:1,2017-12-07T06:18:00Z,29.5150,-94.5133,1.459,1111122 
TCOON,ioos:station:TCOON:518:1,2017-12-07T07:18:00Z,29.5150,-94.5133,1.483,1111122 
TCOON,ioos:station:TCOON:518:1,2017-12-07T08:18:00Z,29.5150,-94.5133,1.509,1111122 
TCOON,ioos:station:TCOON:518:1,2017-12-07T09:18:00Z,29.5150,-94.5133,1.523,1111122 
TCOON,ioos:station:TCOON:518:1,2017-12-07T10:18:00Z,29.5150,-94.5133,1.513,1111122 
TCOON,ioos:station:TCOON:518:1,2017-12-07T11:18:00Z,29.5150,-94.5133,1.511,1111122 
TCOON,ioos:station:TCOON:518:1,2017-12-07T12:18:00Z,29.5150,-94.5133,1.533,1111122 
TCOON,ioos:station:TCOON:518:1,2017-12-07T13:18:00Z,29.5150,-94.5133,1.543,1111122 
TCOON,ioos:station:TCOON:518:1,2017-12-07T14:18:00Z,29.5150,-94.5133,1.472,1111122 
TCOON,ioos:station:TCOON:518:1,2017-12-07T15:18:00Z,29.5150,-94.5133,1.377,1111122 
TCOON,ioos:station:TCOON:518:1,2017-12-07T16:18:00Z,29.5150,-94.5133,1.316,1111122 
TCOON,ioos:station:TCOON:518:1,2017-12-07T17:18:00Z,29.5150,-94.5133,1.254,1111122 
TCOON,ioos:station:TCOON:518:1,2017-12-07T18:18:00Z,29.5150,-94.5133,1.191,1111122 
TCOON,ioos:station:TCOON:518:1,2017-12-07T19:18:00Z,29.5150,-94.5133,1.155,1111122 
TCOON,ioos:station:TCOON:518:1,2017-12-07T20:18:00Z,29.5150,-94.5133,1.166,1111122 
TCOON,ioos:station:TCOON:518:1,2017-12-07T22:18:00Z,29.5150,-94.5133,1.134,1111122 
TCOON,ioos:station:TCOON:518:1,2017-12-07T23:18:00Z,29.5150,-94.5133,1.086,1111122 
TCOON,ioos:station:TCOON:518:1,2017-12-08T00:18:00Z,29.5150,-94.5133,1.095,1111122 
TCOON,ioos:station:TCOON:518:1,2017-12-08T01:18:00Z,29.5150,-94.5133,1.134,1111122 
TCOON,ioos:station:TCOON:518:1,2017-12-08T02:18:00Z,29.5150,-94.5133,1.244,1111122 
TCOON,ioos:station:TCOON:518:1,2017-12-08T03:18:00Z,29.5150,-94.5133,1.464,1111122 
TCOON,ioos:station:TCOON:518:1,2017-12-08T04:18:00Z,29.5150,-94.5133,1.486,1111122 
TCOON,ioos:station:TCOON:518:1,2017-12-08T05:18:00Z,29.5150,-94.5133,1.566,1111122 
TCOON,ioos:station:TCOON:518:1,2017-12-08T06:18:00Z,29.5150,-94.5133,1.633,1111122 
TCOON,ioos:station:TCOON:518:1,2017-12-08T07:18:00Z,29.5150,-94.5133,1.683,1111122 
TCOON,ioos:station:TCOON:518:1,2017-12-08T08:18:00Z,29.5150,-94.5133,1.647,1111122 
TCOON,ioos:station:TCOON:518:1,2017-12-08T09:18:00Z,29.5150,-94.5133,1.595,1111122 
TCOON,ioos:station:TCOON:518:1,2017-12-08T10:18:00Z,29.5150,-94.5133,1.512,1111122 
TCOON,ioos:station:TCOON:518:1,2017-12-08T11:18:00Z,29.5150,-94.5133,1.465,1111122 
TCOON,ioos:station:TCOON:518:1,2017-12-08T12:18:00Z,29.5150,-94.5133,1.383,1111122 
TCOON,ioos:station:TCOON:518:1,2017-12-08T13:18:00Z,29.5150,-94.5133,1.37,1111122 
TCOON,ioos:station:TCOON:518:1,2017-12-08T14:18:00Z,29.5150,-94.5133,1.325,1111122 
TCOON,ioos:station:TCOON:518:1,2017-12-08T15:18:00Z,29.5150,-94.5133,1.367,1111122 
TCOON,ioos:station:TCOON:518:1,2017-12-08T16:18:00Z,29.5150,-94.5133,1.383,1111122 
TCOON,ioos:station:TCOON:518:1,2017-12-08T17:18:00Z,29.5150,-94.5133,1.325,1111122 
TCOON,ioos:station:TCOON:518:1,2017-12-08T18:18:00Z,29.5150,-94.5133,1.234,1111122 
TCOON,ioos:station:TCOON:518:1,2017-12-08T19:18:00Z,29.5150,-94.5133,1.187,1111122 
TCOON,ioos:station:TCOON:518:1,2017-12-08T20:24:00Z,29.5150,-94.5133,1.151,1111122 
TCOON,ioos:station:TCOON:518:1,2017-12-08T21:18:00Z,29.5150,-94.5133,1.114,1111122 
TCOON,ioos:station:TCOON:518:1,2017-12-08T22:18:00Z,29.5150,-94.5133,1.123,1111122 
TCOON,ioos:station:TCOON:518:1,2017-12-08T23:18:00Z,29.5150,-94.5133,1.124,1111122 
TCOON,ioos:station:TCOON:518:1,2017-12-09T00:18:00Z,29.5150,-94.5133,1.153,1111122 
TCOON,ioos:station:TCOON:518:1,2017-12-09T01:18:00Z,29.5150,-94.5133,1.182,1111122 
TCOON,ioos:station:TCOON:518:1,2017-12-09T02:18:00Z,29.5150,-94.5133,1.242,1111122 
TCOON,ioos:station:TCOON:518:1,2017-12-09T03:18:00Z,29.5150,-94.5133,1.313,1111122 
TCOON,ioos:station:TCOON:518:1,2017-12-09T04:18:00Z,29.5150,-94.5133,1.388,1111122 
TCOON,ioos:station:TCOON:518:1,2017-12-09T05:18:00Z,29.5150,-94.5133,1.45,1111122 
TCOON,ioos:station:TCOON:518:1,2017-12-09T06:18:00Z,29.5150,-94.5133,1.505,1111122 
TCOON,ioos:station:TCOON:518:1,2017-12-09T07:18:00Z,29.5150,-94.5133,1.487,1111122 
TCOON,ioos:station:TCOON:518:1,2017-12-09T08:18:00Z,29.5150,-94.5133,1.506,1111122 
TCOON,ioos:station:TCOON:518:1,2017-12-09T09:18:00Z,29.5150,-94.5133,1.538,1111122 
TCOON,ioos:station:TCOON:518:1,2017-12-09T10:18:00Z,29.5150,-94.5133,1.532,1111122 
TCOON,ioos:station:TCOON:518:1,2017-12-09T11:18:00Z,29.5150,-94.5133,1.513,1111122 
TCOON,ioos:station:TCOON:518:1,2017-12-09T12:18:00Z,29.5150,-94.5133,1.433,1111122 
TCOON,ioos:station:TCOON:518:1,2017-12-09T13:18:00Z,29.5150,-94.5133,1.382,1111122 
TCOON,ioos:station:TCOON:518:1,2017-12-09T14:18:00Z,29.5150,-94.5133,1.367,1111122 
TCOON,ioos:station:TCOON:518:1,2017-12-09T15:18:00Z,29.5150,-94.5133,1.346,1111122 
TCOON,ioos:station:TCOON:518:1,2017-12-09T16:18:00Z,29.5150,-94.5133,1.315,1111122 
TCOON,ioos:station:TCOON:518:1,2017-12-09T17:18:00Z,29.5150,-94.5133,1.314,1111122 
TCOON,ioos:station:TCOON:518:1,2017-12-09T18:18:00Z,29.5150,-94.5133,1.297,1111122 
TCOON,ioos:station:TCOON:518:1,2017-12-09T19:18:00Z,29.5150,-94.5133,1.256,1111122 
TCOON,ioos:station:TCOON:518:1,2017-12-09T20:18:00Z,29.5150,-94.5133,1.178,1111122 
TCOON,ioos:station:TCOON:518:1,2017-12-09T21:18:00Z,29.5150,-94.5133,1.128,1111122 
TCOON,ioos:station:TCOON:518:1,2017-12-09T22:18:00Z,29.5150,-94.5133,1.062,1111122 
TCOON,ioos:station:TCOON:518:1,2017-12-09T23:18:00Z,29.5150,-94.5133,1.02,1111122 
TCOON,ioos:station:TCOON:518:1,2017-12-10T00:18:00Z,29.5150,-94.5133,1.013,1111122 
TCOON,ioos:station:TCOON:518:1,2017-12-10T01:18:00Z,29.5150,-94.5133,1.021,1111122 
TCOON,ioos:station:TCOON:518:1,2017-12-10T02:18:00Z,29.5150,-94.5133,1.012,1111122 
TCOON,ioos:station:TCOON:518:1,2017-12-10T03:18:00Z,29.5150,-94.5133,1.109,1111122 
TCOON,ioos:station:TCOON:518:1,2017-12-10T04:18:00Z,29.5150,-94.5133,1.175,1111122 
TCOON,ioos:station:TCOON:518:1,2017-12-10T05:18:00Z,29.5150,-94.5133,1.232,1111122 
TCOON,ioos:station:TCOON:518:1,2017-12-10T06:18:00Z,29.5150,-94.5133,1.266,1111122 
TCOON,ioos:station:TCOON:518:1,2017-12-10T07:18:00Z,29.5150,-94.5133,1.286,1111122 
TCOON,ioos:station:TCOON:518:1,2017-12-10T08:18:00Z,29.5150,-94.5133,1.3,1111122 
TCOON,ioos:station:TCOON:518:1,2017-12-10T09:18:00Z,29.5150,-94.5133,1.306,1111122 
TCOON,ioos:station:TCOON:518:1,2017-12-10T10:18:00Z,29.5150,-94.5133,1.26,1111122 
TCOON,ioos:station:TCOON:518:1,2017-12-10T11:18:00Z,29.5150,-94.5133,1.205,1111122 
TCOON,ioos:station:TCOON:518:1,2017-12-10T12:18:00Z,29.5150,-94.5133,1.153,1111122 
TCOON,ioos:station:TCOON:518:1,2017-12-10T13:18:00Z,29.5150,-94.5133,1.109,1111122 
TCOON,ioos:station:TCOON:518:1,2017-12-10T14:18:00Z,29.5150,-94.5133,1.098,1111122 
TCOON,ioos:station:TCOON:518:1,2017-12-10T15:18:00Z,29.5150,-94.5133,1.1,1111122 
TCOON,ioos:station:TCOON:518:1,2017-12-10T16:18:00Z,29.5150,-94.5133,1.112,1111122 
TCOON,ioos:station:TCOON:518:1,2017-12-10T17:18:00Z,29.5150,-94.5133,1.158,1111122 
TCOON,ioos:station:TCOON:518:1,2017-12-10T18:18:00Z,29.5150,-94.5133,1.186,1111122 
TCOON,ioos:station:TCOON:518:1,2017-12-10T19:18:00Z,29.5150,-94.5133,1.179,1111122 
TCOON,ioos:station:TCOON:518:1,2017-12-10T20:18:00Z,29.5150,-94.5133,1.161,1111122 
TCOON,ioos:station:TCOON:518:1,2017-12-10T21:18:00Z,29.5150,-94.5133,1.153,1111122 
TCOON,ioos:station:TCOON:518:1,2017-12-10T22:18:00Z,29.5150,-94.5133,1.114,1111122 
TCOON,ioos:station:TCOON:518:1,2017-12-10T23:18:00Z,29.5150,-94.5133,1.108,1111122 
TCOON,ioos:station:TCOON:518:1,2017-12-11T00:18:00Z,29.5150,-94.5133,1.071,1111122 
TCOON,ioos:station:TCOON:518:1,2017-12-11T01:18:00Z,29.5150,-94.5133,1.074,1111122 
TCOON,ioos:station:TCOON:518:1,2017-12-11T02:18:00Z,29.5150,-94.5133,1.098,1111122 
TCOON,ioos:station:TCOON:518:1,2017-12-11T03:18:00Z,29.5150,-94.5133,1.089,1111122 
TCOON,ioos:station:TCOON:518:1,2017-12-11T04:18:00Z,29.5150,-94.5133,1.189,1111122 
TCOON,ioos:station:TCOON:518:1,2017-12-11T05:18:00Z,29.5150,-94.5133,1.243,1111122 
TCOON,ioos:station:TCOON:518:1,2017-12-11T06:18:00Z,29.5150,-94.5133,1.288,1111122 
TCOON,ioos:station:TCOON:518:1,2017-12-11T07:18:00Z,29.5150,-94.5133,1.31,1111122 
TCOON,ioos:station:TCOON:518:1,2017-12-11T08:18:00Z,29.5150,-94.5133,1.335,1111122 
TCOON,ioos:station:TCOON:518:1,2017-12-11T09:18:00Z,29.5150,-94.5133,1.323,1111122 
TCOON,ioos:station:TCOON:518:1,2017-12-11T10:18:00Z,29.5150,-94.5133,1.286,1111122 
TCOON,ioos:station:TCOON:518:1,2017-12-11T11:18:00Z,29.5150,-94.5133,1.247,1111122 
TCOON,ioos:station:TCOON:518:1,2017-12-11T12:18:00Z,29.5150,-94.5133,1.205,1111122 
TCOON,ioos:station:TCOON:518:1,2017-12-11T13:18:00Z,29.5150,-94.5133,1.168,1111122 
TCOON,ioos:station:TCOON:518:1,2017-12-11T14:18:00Z,29.5150,-94.5133,1.135,1111122 
TCOON,ioos:station:TCOON:518:1,2017-12-11T15:18:00Z,29.5150,-94.5133,1.082,1111122 
TCOON,ioos:station:TCOON:518:1,2017-12-11T16:18:00Z,29.5150,-94.5133,1.027,1111122 
TCOON,ioos:station:TCOON:518:1,2017-12-11T17:18:00Z,29.5150,-94.5133,0.996,1111122 
TCOON,ioos:station:TCOON:518:1,2017-12-11T18:18:00Z,29.5150,-94.5133,1.035,1111122 
TCOON,ioos:station:TCOON:518:1,2017-12-11T19:18:00Z,29.5150,-94.5133,1.09,1111122 
TCOON,ioos:station:TCOON:518:1,2017-12-11T20:18:00Z,29.5150,-94.5133,1.089,1111122 
TCOON,ioos:station:TCOON:518:1,2017-12-11T21:18:00Z,29.5150,-94.5133,1.088,1111122 
TCOON,ioos:station:TCOON:518:1,2017-12-11T22:18:00Z,29.5150,-94.5133,1.062,1111122 
TCOON,ioos:station:TCOON:518:1,2017-12-11T23:18:00Z,29.5150,-94.5133,1.05,1111122 
TCOON,ioos:station:TCOON:518:1,2017-12-12T00:18:00Z,29.5150,-94.5133,1.041,1111122 
TCOON,ioos:station:TCOON:518:1,2017-12-12T05:18:00Z,29.5150,-94.5133,1.149,1111122 
TCOON,ioos:station:TCOON:518:1,2017-12-12T06:18:00Z,29.5150,-94.5133,1.185,1111122 
TCOON,ioos:station:TCOON:518:1,2017-12-12T07:18:00Z,29.5150,-94.5133,1.231,1111122 
TCOON,ioos:station:TCOON:518:1,2017-12-12T08:18:00Z,29.5150,-94.5133,1.25,1111122 
TCOON,ioos:station:TCOON:518:1,2017-12-12T09:18:00Z,29.5150,-94.5133,1.252,1111122 
TCOON,ioos:station:TCOON:518:1,2017-12-12T10:18:00Z,29.5150,-94.5133,1.254,1111122 
TCOON,ioos:station:TCOON:518:1,2017-12-12T11:18:00Z,29.5150,-94.5133,1.208,1111122 
TCOON,ioos:station:TCOON:518:1,2017-12-12T12:18:00Z,29.5150,-94.5133,1.133,1111122 
TCOON,ioos:station:TCOON:518:1,2017-12-12T13:18:00Z,29.5150,-94.5133,1.021,1111122 
TCOON,ioos:station:TCOON:518:1,2017-12-12T14:18:00Z,29.5150,-94.5133,1.008,1111122 
TCOON,ioos:station:TCOON:518:1,2017-12-12T15:18:00Z,29.5150,-94.5133,0.973,1111122 
TCOON,ioos:station:TCOON:518:1,2017-12-12T16:18:00Z,29.5150,-94.5133,0.925,1111122 
TCOON,ioos:station:TCOON:518:1,2017-12-12T17:18:00Z,29.5150,-94.5133,0.901,1111122 
TCOON,ioos:station:TCOON:518:1,2017-12-12T18:18:00Z,29.5150,-94.5133,0.864,1111122 
TCOON,ioos:station:TCOON:518:1,2017-12-12T19:24:00Z,29.5150,-94.5133,0.88,1111122 
TCOON,ioos:station:TCOON:518:1,2017-12-12T20:18:00Z,29.5150,-94.5133,0.942,1111122 
TCOON,ioos:station:TCOON:518:1,2017-12-12T21:18:00Z,29.5150,-94.5133,0.97,1111122 
TCOON,ioos:station:TCOON:518:1,2017-12-12T22:18:00Z,29.5150,-94.5133,1.035,1111122 
TCOON,ioos:station:TCOON:518:1,2017-12-13T09:18:00Z,29.5150,-94.5133,1.05,1111122 
TCOON,ioos:station:TCOON:518:1,2017-12-13T10:18:00Z,29.5150,-94.5133,1.061,1111122 
TCOON,ioos:station:TCOON:518:1,2017-12-13T11:18:00Z,29.5150,-94.5133,1.039,1111122 
TCOON,ioos:station:TCOON:518:1,2017-12-13T12:18:00Z,29.5150,-94.5133,1.005,1111122 
TCOON,ioos:station:TCOON:518:1,2017-12-13T13:18:00Z,29.5150,-94.5133,0.982,1111122 
TCOON,ioos:station:TCOON:518:1,2017-12-13T14:18:00Z,29.5150,-94.5133,0.967,1111122 
TCOON,ioos:station:TCOON:518:1,2017-12-13T17:18:00Z,29.5150,-94.5133,0.918,1111122 
TCOON,ioos:station:TCOON:518:1,2017-12-13T18:18:00Z,29.5150,-94.5133,0.975,1111122 